| time (UTC) | temp C | wind direction | speed KPH | gust KPH | rain 1hr cm | rain 24hr cm | rain mn cm | humidity % | barometer mb |
| 20260503053341 | 14 | 0 | 6.4 | 9.7 | 0.00 | 0.30 | 0.30 | 94 | 1010.8 |
| 20260503052841 | 13 | 0 | 3.2 | 6.4 | 0.00 | 0.30 | 0.30 | 94 | 1010.7 |
| 20260503052340 | 13 | 0 | 1.6 | 4.8 | 0.00 | 0.30 | 0.30 | 93 | 1010.7 |
| 20260503051842 | 13 | 0 | 3.2 | 4.8 | 0.00 | 0.30 | 0.30 | 93 | 1010.9 |
| 20260503051341 | 13 | 0 | 3.2 | 4.8 | 0.00 | 0.30 | 0.30 | 93 | 1010.8 |
| 20260503050843 | 13 | 0 | 3.2 | 8.0 | 0.00 | 0.30 | 0.30 | 93 | 1010.9 |
| 20260503050342 | 13 | 0 | 3.2 | 8.0 | 0.00 | 0.30 | 0.30 | 93 | 1010.9 |
| 20260503045842 | 13 | 0 | 1.6 | 6.4 | 0.00 | 0.30 | 0.30 | 93 | 1011.0 |
| 20260503045341 | 13 | 0 | 0.0 | 0.0 | 0.00 | 0.30 | 0.30 | 93 | 1010.9 |
| 20260503045103 | 13 | 0 | 0.0 | 0.0 | 0.00 | 0.30 | 0.30 | 93 | 1011.0 |
| 20260503044340 | 13 | 0 | 0.0 | 0.0 | 0.03 | 0.30 | 0.30 | 93 | 1011.0 |
| 20260503043840 | 13 | 0 | 0.0 | 0.0 | 0.05 | 0.30 | 0.30 | 93 | 1010.9 |
| 20260503043341 | 13 | 0 | 0.0 | 3.2 | 0.08 | 0.30 | 0.30 | 93 | 1011.0 |
| 20260503043102 | 13 | 0 | 0.0 | 4.8 | 0.10 | 0.30 | 0.30 | 93 | 1010.9 |
| 20260503042603 | 13 | 0 | 3.2 | 6.4 | 0.10 | 0.30 | 0.30 | 93 | 1010.9 |
| 20260503041841 | 13 | 0 | 1.6 | 6.4 | 0.13 | 0.30 | 0.30 | 93 | 1010.9 |
| 20260503041341 | 13 | 0 | 1.6 | 4.8 | 0.13 | 0.30 | 0.30 | 93 | 1010.9 |
| 20260503040842 | 13 | 0 | 1.6 | 6.4 | 0.13 | 0.30 | 0.30 | 93 | 1011.0 |
| 20260503040340 | 13 | 0 | 3.2 | 6.4 | 0.13 | 0.30 | 0.30 | 93 | 1011.1 |
| 20260503035840 | 13 | 0 | 3.2 | 4.8 | 0.13 | 0.18 | 0.30 | 93 | 1011.1 |
| 20260503035603 | 13 | 0 | 1.6 | 6.4 | 0.13 | 0.18 | 0.30 | 93 | 1011.2 |
| 20260503034839 | 13 | 0 | 3.2 | 11.3 | 0.13 | 0.18 | 0.30 | 93 | 1011.1 |
| 20260503034341 | 13 | 0 | 3.2 | 11.3 | 0.10 | 0.18 | 0.28 | 93 | 1011.3 |
| 20260503033840 | 13 | 0 | 4.8 | 16.1 | 0.08 | 0.18 | 0.23 | 93 | 1011.2 |
| 20260503033339 | 13 | 0 | 4.8 | 16.1 | 0.05 | 0.18 | 0.23 | 93 | 1011.4 |
| 20260503032844 | 13 | 0 | 6.4 | 16.1 | 0.03 | 0.18 | 0.20 | 93 | 1011.6 |
| 20260503032340 | 13 | 0 | 9.7 | 16.1 | 0.03 | 0.18 | 0.20 | 93 | 1011.8 |
| 20260503031839 | 13 | 0 | 8.0 | 16.1 | 0.00 | 0.18 | 0.18 | 93 | 1011.9 |
| 20260503031339 | 13 | 0 | 9.7 | 16.1 | 0.00 | 0.18 | 0.18 | 92 | 1011.8 |
| 20260503030842 | 13 | 0 | 6.4 | 11.3 | 0.00 | 0.18 | 0.18 | 92 | 1011.9 |
| 20260503030340 | 13 | 0 | 4.8 | 9.7 | 0.00 | 0.18 | 0.18 | 92 | 1011.8 |
| 20260503025838 | 13 | 0 | 4.8 | 8.0 | 0.00 | 0.18 | 0.18 | 92 | 1011.9 |
| 20260503025338 | 13 | 0 | 3.2 | 4.8 | 0.00 | 0.18 | 0.18 | 92 | 1012.0 |
| 20260503024838 | 13 | 0 | 0.0 | 1.6 | 0.00 | 0.18 | 0.18 | 92 | 1011.9 |
| 20260503024828 | 13 | 0 | 0.0 | 4.8 | 0.00 | 0.18 | 0.18 | 92 | 1011.8 |
| 20260503024058 | 13 | 0 | 1.6 | 4.8 | 0.00 | 0.18 | 0.18 | 92 | 1011.9 |
| 20260503023338 | 13 | 0 | 0.0 | 3.2 | 0.00 | 0.18 | 0.18 | 92 | 1011.9 |
| 20260503022837 | 13 | 0 | 0.0 | 3.2 | 0.00 | 0.18 | 0.18 | 92 | 1011.8 |
| 20260503022337 | 13 | 0 | 0.0 | 3.2 | 0.00 | 0.18 | 0.18 | 92 | 1011.9 |
| 20260503022104 | 13 | 0 | 0.0 | 3.2 | 0.00 | 0.18 | 0.18 | 92 | 1012.1 |
| 20260503021337 | 13 | 0 | 0.0 | 1.6 | 0.00 | 0.18 | 0.18 | 92 | 1012.0 |
| 20260503021057 | 13 | 0 | 0.0 | 1.6 | 0.00 | 0.18 | 0.18 | 92 | 1012.0 |
| 20260503020558 | 13 | 0 | 0.0 | 3.2 | 0.00 | 0.18 | 0.18 | 92 | 1012.0 |
| 20260503015837 | 13 | 0 | 1.6 | 3.2 | 0.00 | 0.18 | 0.18 | 92 | 1012.1 |
| 20260503015336 | 13 | 0 | 0.0 | 0.0 | 0.00 | 0.18 | 0.18 | 92 | 1011.9 |
| 20260503014835 | 13 | 0 | 0.0 | 3.2 | 0.00 | 0.18 | 0.18 | 92 | 1011.9 |
| 20260503014824 | 13 | 0 | 0.0 | 4.8 | 0.00 | 0.18 | 0.18 | 92 | 1011.8 |
| 20260503014100 | 13 | 0 | 1.6 | 4.8 | 0.00 | 0.18 | 0.18 | 92 | 1012.0 |
| 20260503013338 | 13 | 0 | 1.6 | 4.8 | 0.00 | 0.18 | 0.18 | 92 | 1011.9 |
| 20260503012836 | 13 | 0 | 3.2 | 4.8 | 0.00 | 0.18 | 0.18 | 92 | 1011.9 |
| 20260503012336 | 13 | 0 | 0.0 | 4.8 | 0.00 | 0.18 | 0.18 | 92 | 1012.0 |
| 20260503011838 | 13 | 0 | 0.0 | 8.0 | 0.00 | 0.18 | 0.18 | 92 | 1012.0 |
| 20260503011557 | 13 | 0 | 3.2 | 8.0 | 0.00 | 0.18 | 0.18 | 92 | 1012.0 |
| 20260503010837 | 13 | 0 | 4.8 | 8.0 | 0.00 | 0.18 | 0.18 | 91 | 1012.1 |
| 20260503010335 | 13 | 0 | 1.6 | 8.0 | 0.00 | 0.18 | 0.18 | 91 | 1012.1 |
| 20260503005835 | 13 | 0 | 3.2 | 8.0 | 0.00 | 0.18 | 0.18 | 91 | 1012.1 |
| 20260503005336 | 13 | 0 | 3.2 | 6.4 | 0.00 | 0.18 | 0.18 | 91 | 1012.1 |
| 20260503005037 | 13 | 0 | 3.2 | 8.0 | 0.00 | 0.18 | 0.18 | 91 | 1012.2 |
| 20260503003836 | 13 | 0 | 1.6 | 6.4 | 0.00 | 0.18 | 0.18 | 91 | 1012.4 |
| 20260503003558 | 13 | 0 | 3.2 | 6.4 | 0.00 | 0.18 | 0.18 | 91 | 1012.2 |
| 20260503002834 | 13 | 0 | 3.2 | 4.8 | 0.00 | 0.18 | 0.18 | 91 | 1012.3 |
| 20260503002335 | 13 | 0 | 0.0 | 3.2 | 0.00 | 0.18 | 0.18 | 91 | 1012.3 |
| 20260503001835 | 13 | 0 | 0.0 | 3.2 | 0.00 | 0.18 | 0.18 | 91 | 1012.2 |
| 20260503001334 | 13 | 0 | 0.0 | 3.2 | 0.00 | 0.18 | 0.18 | 91 | 1012.3 |
| 20260503000835 | 13 | 0 | 0.0 | 3.2 | 0.00 | 0.18 | 0.18 | 91 | 1012.4 |
| 20260503000334 | 13 | 0 | 0.0 | 1.6 | 0.00 | 0.18 | 0.18 | 90 | 1012.5 |
| 20260502235836 | 13 | 0 | 0.0 | 1.6 | 0.03 | 0.15 | 0.18 | 90 | 1012.6 |
| 20260502235332 | 13 | 0 | 0.0 | 3.2 | 0.03 | 0.15 | 0.18 | 90 | 1012.6 |
| 20260502234834 | 13 | 0 | 0.0 | 3.2 | 0.03 | 0.15 | 0.18 | 90 | 1012.5 |
| 20260502234334 | 13 | 0 | 1.6 | 4.8 | 0.05 | 0.15 | 0.18 | 90 | 1012.6 |
| 20260502233836 | 13 | 0 | 1.6 | 4.8 | 0.05 | 0.15 | 0.18 | 90 | 1012.8 |
| 20260502233334 | 13 | 0 | 0.0 | 6.4 | 0.05 | 0.15 | 0.18 | 90 | 1012.8 |
| 20260502232834 | 13 | 0 | 3.2 | 6.4 | 0.08 | 0.15 | 0.18 | 90 | 1012.9 |
| 20260502232335 | 13 | 0 | 3.2 | 14.5 | 0.13 | 0.15 | 0.18 | 90 | 1012.9 |
| 20260502232329 | 13 | 0 | 4.8 | 17.7 | 0.15 | 0.15 | 0.18 | 89 | 1012.9 |
| 20260502231334 | 13 | 0 | 9.7 | 17.7 | 0.15 | 0.15 | 0.18 | 89 | 1012.7 |
| 20260502230834 | 13 | 0 | 9.7 | 17.7 | 0.18 | 0.15 | 0.18 | 89 | 1012.8 |
| 20260502230334 | 13 | 0 | 9.7 | 17.7 | 0.18 | 0.15 | 0.18 | 89 | 1012.8 |
| 20260502225834 | 13 | 0 | 9.7 | 17.7 | 0.15 | 0.00 | 0.15 | 89 | 1013.1 |
| 20260502225333 | 13 | 0 | 6.4 | 14.5 | 0.15 | 0.00 | 0.15 | 89 | 1013.2 |
| 20260502224833 | 13 | 0 | 8.0 | 19.3 | 0.15 | 0.00 | 0.15 | 88 | 1013.4 |
| 20260502224333 | 13 | 0 | 9.7 | 19.3 | 0.15 | 0.00 | 0.15 | 88 | 1013.4 |
| 20260502223833 | 13 | 0 | 11.3 | 19.3 | 0.15 | 0.00 | 0.15 | 88 | 1013.4 |
| 20260502223339 | 14 | 0 | 17.7 | 24.1 | 0.10 | 0.00 | 0.08 | 88 | 1013.3 |
| 20260502223334 | 13 | 0 | 9.7 | 24.1 | 0.15 | 0.00 | 0.15 | 88 | 1013.3 |
| 20260502222559 | 13 | 0 | 9.7 | 19.3 | 0.05 | 0.00 | 0.05 | 88 | 1013.9 |
| 20260502221831 | 13 | 0 | 6.4 | 17.7 | 0.03 | 0.00 | 0.03 | 88 | 1014.2 |
| 20260502221331 | 13 | 0 | 6.4 | 17.7 | 0.03 | 0.00 | 0.03 | 87 | 1014.4 |
| 20260502220831 | 13 | 0 | 8.0 | 24.1 | 0.00 | 0.00 | 0.00 | 87 | 1014.7 |
| 20260502220333 | 13 | 0 | 11.3 | 33.8 | 0.00 | 0.00 | 0.00 | 87 | 1014.8 |
| 20260502215830 | 13 | 0 | 11.3 | 33.8 | 0.00 | 0.00 | 0.00 | 87 | 1015.0 |
| 20260502215331 | 13 | 0 | 20.9 | 29.0 | 0.00 | 0.00 | 0.00 | 87 | 1015.3 |
| 20260502214832 | 13 | 0 | 8.0 | 16.1 | 0.00 | 0.00 | 0.00 | 87 | 1013.8 |
| 20260502214554 | 13 | 0 | 6.4 | 11.3 | 0.00 | 0.00 | 0.00 | 87 | 1013.8 |
| 20260502213830 | 13 | 0 | 6.4 | 11.3 | 0.00 | 0.00 | 0.00 | 86 | 1013.8 |
| 20260502213330 | 13 | 0 | 6.4 | 14.5 | 0.00 | 0.00 | 0.00 | 86 | 1013.8 |
| 20260502213058 | 13 | 0 | 9.7 | 14.5 | 0.00 | 0.00 | 0.00 | 86 | 1013.8 |
| 20260502212330 | 13 | 0 | 9.7 | 11.3 | 0.00 | 0.00 | 0.00 | 86 | 1013.8 |
| 20260502211832 | 13 | 0 | 8.0 | 11.3 | 0.00 | 0.00 | 0.00 | 86 | 1013.9 |
| 20260502211332 | 13 | 0 | 8.0 | 14.5 | 0.00 | 0.00 | 0.00 | 86 | 1013.9 |
| 20260502210831 | 13 | 0 | 9.7 | 14.5 | 0.00 | 0.00 | 0.00 | 86 | 1014.0 |
| 20260502210330 | 13 | 0 | 9.7 | 14.5 | 0.00 | 0.00 | 0.00 | 86 | 1014.0 |
| 20260502205834 | 13 | 0 | 6.4 | 9.7 | 0.00 | 0.00 | 0.00 | 86 | 1014.2 |
| 20260502205329 | 13 | 0 | 6.4 | 9.7 | 0.00 | 0.00 | 0.00 | 86 | 1014.3 |
| 20260502204832 | 13 | 0 | 6.4 | 14.5 | 0.00 | 0.00 | 0.00 | 85 | 1014.2 |
| 20260502204331 | 13 | 0 | 8.0 | 14.5 | 0.00 | 0.00 | 0.00 | 85 | 1014.4 |
| 20260502203830 | 13 | 0 | 6.4 | 14.5 | 0.00 | 0.00 | 0.00 | 85 | 1014.4 |
| 20260502203552 | 13 | 0 | 4.8 | 9.7 | 0.00 | 0.00 | 0.00 | 84 | 1014.3 |
| 20260502202829 | 14 | 0 | 8.0 | 9.7 | 0.00 | 0.00 | 0.00 | 84 | 1014.4 |
| 20260502202331 | 14 | 0 | 4.8 | 9.7 | 0.00 | 0.00 | 0.00 | 84 | 1014.6 |
| 20260502201828 | 14 | 0 | 3.2 | 14.5 | 0.00 | 0.00 | 0.00 | 83 | 1014.6 |
| 20260502201551 | 14 | 0 | 6.4 | 14.5 | 0.00 | 0.00 | 0.00 | 83 | 1014.8 |
| 20260502200828 | 14 | 0 | 4.8 | 11.3 | 0.00 | 0.00 | 0.00 | 83 | 1014.7 |
| 20260502200328 | 14 | 0 | 4.8 | 8.0 | 0.00 | 0.00 | 0.00 | 82 | 1014.8 |
| 20260502195829 | 14 | 0 | 6.4 | 8.0 | 0.00 | 0.00 | 0.00 | 82 | 1014.9 |
| 20260502195328 | 14 | 0 | 4.8 | 9.7 | 0.00 | 0.00 | 0.00 | 82 | 1014.9 |
| 20260502194830 | 14 | 0 | 4.8 | 9.7 | 0.00 | 0.00 | 0.00 | 81 | 1014.9 |
| 20260502194328 | 14 | 0 | 4.8 | 8.0 | 0.00 | 0.00 | 0.00 | 81 | 1014.8 |
| 20260502193828 | 14 | 0 | 3.2 | 6.4 | 0.00 | 0.00 | 0.00 | 81 | 1014.8 |
| 20260502193330 | 15 | 0 | 4.8 | 6.4 | 0.00 | 0.00 | 0.00 | 81 | 1014.8 |
| 20260502192827 | 15 | 0 | 3.2 | 6.4 | 0.00 | 0.00 | 0.00 | 80 | 1014.9 |
| 20260502192327 | 15 | 0 | 3.2 | 6.4 | 0.00 | 0.00 | 0.00 | 80 | 1014.9 |
| 20260502192053 | 15 | 0 | 3.2 | 6.4 | 0.00 | 0.00 | 0.00 | 80 | 1014.9 |
| 20260502191329 | 15 | 0 | 3.2 | 6.4 | 0.00 | 0.00 | 0.00 | 79 | 1015.0 |
| 20260502190827 | 15 | 0 | 3.2 | 6.4 | 0.00 | 0.00 | 0.00 | 79 | 1015.0 |
| 20260502190327 | 15 | 0 | 3.2 | 6.4 | 0.00 | 0.00 | 0.00 | 78 | 1015.0 |
| 20260502185827 | 15 | 0 | 4.8 | 6.4 | 0.00 | 0.00 | 0.00 | 78 | 1014.9 |
| 20260502185327 | 15 | 0 | 3.2 | 9.7 | 0.00 | 0.00 | 0.00 | 78 | 1015.0 |
| 20260502184828 | 16 | 0 | 6.4 | 9.7 | 0.00 | 0.00 | 0.00 | 78 | 1015.0 |
| 20260502184326 | 16 | 0 | 6.4 | 9.7 | 0.00 | 0.00 | 0.00 | 77 | 1014.9 |
| 20260502183828 | 16 | 0 | 6.4 | 9.7 | 0.00 | 0.00 | 0.00 | 76 | 1015.0 |
| 20260502183328 | 16 | 0 | 6.4 | 11.3 | 0.00 | 0.00 | 0.00 | 75 | 1014.9 |
| 20260502182826 | 16 | 0 | 6.4 | 11.3 | 0.00 | 0.00 | 0.00 | 75 | 1015.0 |
| 20260502182328 | 16 | 0 | 6.4 | 9.7 | 0.00 | 0.00 | 0.00 | 74 | 1014.9 |
| 20260502182054 | 16 | 0 | 3.2 | 9.7 | 0.00 | 0.00 | 0.00 | 73 | 1014.9 |
| 20260502181326 | 16 | 0 | 4.8 | 9.7 | 0.00 | 0.00 | 0.00 | 73 | 1014.9 |
| 20260502180827 | 16 | 0 | 6.4 | 9.7 | 0.00 | 0.00 | 0.00 | 70 | 1014.9 |
| 20260502180326 | 16 | 0 | 3.2 | 8.0 | 0.00 | 0.00 | 0.00 | 68 | 1015.0 |
| 20260502170325 | 17 | 0 | 4.8 | 11.3 | 0.00 | 0.00 | 0.00 | 62 | 1015.5 |
| 20260502164326 | 18 | 0 | 6.4 | 16.1 | 0.00 | 0.00 | 0.00 | 61 | 1015.7 |
| 20260502163825 | 18 | 0 | 6.4 | 16.1 | 0.00 | 0.00 | 0.00 | 60 | 1016.0 |
| 20260502163325 | 18 | 0 | 6.4 | 16.1 | 0.00 | 0.00 | 0.00 | 58 | 1016.1 |
| 20260502163053 | 18 | 0 | 6.4 | 16.1 | 0.00 | 0.00 | 0.00 | 56 | 1016.2 |
| 20260502162324 | 18 | 0 | 8.0 | 14.5 | 0.00 | 0.00 | 0.00 | 56 | 1016.2 |
| 20260502162048 | 19 | 0 | 8.0 | 14.5 | 0.00 | 0.00 | 0.00 | 54 | 1016.2 |
| 20260502161323 | 19 | 0 | 4.8 | 14.5 | 0.00 | 0.00 | 0.00 | 54 | 1016.1 |
| 20260502161049 | 20 | 0 | 8.0 | 14.5 | 0.00 | 0.00 | 0.00 | 54 | 1016.2 |
| 20260502160323 | 20 | 0 | 8.0 | 17.7 | 0.00 | 0.00 | 0.00 | 53 | 1016.2 |
| 20260502152321 | 20 | 0 | 11.3 | 19.3 | 0.00 | 0.00 | 0.00 | 53 | 1016.6 |
| 20260502151821 | 20 | 0 | 12.9 | 19.3 | 0.00 | 0.00 | 0.00 | 53 | 1016.6 |
| 20260502151323 | 20 | 0 | 9.7 | 20.9 | 0.00 | 0.00 | 0.00 | 53 | 1016.6 |
| 20260502151055 | 20 | 0 | 11.3 | 20.9 | 0.00 | 0.00 | 0.00 | 53 | 1016.6 |
| 20260502150322 | 20 | 0 | 11.3 | 19.3 | 0.00 | 0.00 | 0.00 | 53 | 1016.8 |
| 20260502130318 | 20 | 0 | 14.5 | 22.5 | 0.00 | 0.00 | 0.00 | 59 | 1017.6 |
| 20260502123319 | 20 | 0 | 14.5 | 27.4 | 0.00 | 0.00 | 0.00 | 67 | 1017.9 |
| 20260502122819 | 20 | 0 | 14.5 | 27.4 | 0.00 | 0.00 | 0.00 | 68 | 1017.9 |
| 20260502122318 | 20 | 0 | 14.5 | 25.7 | 0.00 | 0.00 | 0.00 | 68 | 1018.0 |
| 20260502121817 | 21 | 0 | 14.5 | 25.7 | 0.00 | 0.00 | 0.00 | 68 | 1018.0 |
| 20260502121317 | 21 | 0 | 11.3 | 27.4 | 0.00 | 0.00 | 0.00 | 69 | 1018.0 |
| 20260502120817 | 21 | 0 | 12.9 | 27.4 | 0.00 | 0.00 | 0.00 | 69 | 1018.0 |
| 20260502120318 | 22 | 0 | 14.5 | 24.1 | 0.00 | 0.00 | 0.00 | 69 | 1018.0 |
| 20260502115817 | 22 | 0 | 12.9 | 24.1 | 0.00 | 0.00 | 0.00 | 70 | 1018.0 |
| 20260502115317 | 21 | 0 | 9.7 | 27.4 | 0.00 | 0.00 | 0.00 | 70 | 1018.1 |
| 20260502115040 | 22 | 0 | 14.5 | 27.4 | 0.00 | 0.00 | 0.00 | 70 | 1018.1 |
| 20260502114546 | 22 | 0 | 11.3 | 27.4 | 0.00 | 0.00 | 0.00 | 70 | 1018.2 |
| 20260502113816 | 22 | 0 | 12.9 | 27.4 | 0.00 | 0.00 | 0.00 | 70 | 1018.1 |
| 20260502113316 | 22 | 0 | 17.7 | 27.4 | 0.00 | 0.00 | 0.00 | 70 | 1018.2 |
| 20260502112816 | 22 | 0 | 12.9 | 27.4 | 0.00 | 0.00 | 0.00 | 71 | 1018.1 |
| 20260502112318 | 22 | 0 | 11.3 | 27.4 | 0.00 | 0.00 | 0.00 | 70 | 1018.2 |
| 20260502111815 | 21 | 0 | 12.9 | 20.9 | 0.00 | 0.00 | 0.00 | 71 | 1018.2 |
| 20260502111316 | 21 | 0 | 9.7 | 22.5 | 0.00 | 0.00 | 0.00 | 72 | 1018.2 |
| 20260502110817 | 21 | 0 | 12.9 | 22.5 | 0.00 | 0.00 | 0.00 | 72 | 1018.2 |
| 20260502110315 | 21 | 0 | 12.9 | 22.5 | 0.00 | 0.00 | 0.00 | 72 | 1018.3 |
| 20260502105814 | 21 | 0 | 9.7 | 22.5 | 0.00 | 0.00 | 0.00 | 73 | 1018.3 |
| 20260502105316 | 20 | 0 | 9.7 | 20.9 | 0.00 | 0.00 | 0.00 | 74 | 1018.4 |
| 20260502105048 | 20 | 0 | 9.7 | 25.7 | 0.00 | 0.00 | 0.00 | 73 | 1018.4 |
| 20260502104318 | 20 | 0 | 14.5 | 25.7 | 0.00 | 0.00 | 0.00 | 73 | 1018.3 |
| 20260502103815 | 20 | 0 | 14.5 | 22.5 | 0.00 | 0.00 | 0.00 | 73 | 1018.3 |
| 20260502103317 | 20 | 0 | 11.3 | 27.4 | 0.00 | 0.00 | 0.00 | 73 | 1018.5 |
| 20260502102815 | 20 | 0 | 11.3 | 29.0 | 0.00 | 0.00 | 0.00 | 73 | 1018.4 |
| 20260502102541 | 21 | 0 | 19.3 | 29.0 | 0.00 | 0.00 | 0.00 | 74 | 1018.5 |
| 20260502101815 | 21 | 0 | 11.3 | 24.1 | 0.00 | 0.00 | 0.00 | 74 | 1018.3 |
| 20260502101314 | 21 | 0 | 12.9 | 24.1 | 0.00 | 0.00 | 0.00 | 74 | 1018.4 |
| 20260502100814 | 21 | 0 | 17.7 | 24.1 | 0.00 | 0.00 | 0.00 | 74 | 1018.5 |
| 20260502100315 | 21 | 0 | 11.3 | 25.7 | 0.00 | 0.00 | 0.00 | 75 | 1018.5 |
| 20260502091310 | 20 | 0 | 12.9 | 20.9 | 0.00 | 0.00 | 0.00 | 79 | 1018.4 |
| 20260502090812 | 19 | 0 | 8.0 | 20.9 | 0.00 | 0.00 | 0.00 | 80 | 1018.3 |
| 20260502090309 | 19 | 0 | 11.3 | 20.9 | 0.00 | 0.00 | 0.00 | 80 | 1018.4 |
| 20260502071304 | 14 | 0 | 4.8 | 6.4 | 0.00 | 0.00 | 0.00 | 81 | 1018.5 |
| 20260502070803 | 14 | 0 | 3.2 | 8.0 | 0.00 | 0.00 | 0.00 | 81 | 1018.5 |
| 20260502070302 | 14 | 0 | 4.8 | 8.0 | 0.00 | 0.00 | 0.00 | 81 | 1018.6 |
| 20260502065803 | 14 | 0 | 4.8 | 8.0 | 0.00 | 0.00 | 0.00 | 81 | 1018.7 |
| 20260502065302 | 13 | 0 | 3.2 | 8.0 | 0.00 | 0.00 | 0.00 | 81 | 1018.6 |
| 20260502064803 | 13 | 0 | 4.8 | 8.0 | 0.00 | 0.00 | 0.00 | 81 | 1018.6 |
| 20260502064302 | 13 | 0 | 4.8 | 9.7 | 0.00 | 0.00 | 0.00 | 80 | 1018.5 |
| 20260502063802 | 13 | 0 | 4.8 | 9.7 | 0.00 | 0.00 | 0.00 | 80 | 1018.5 |
| 20260502063302 | 13 | 0 | 4.8 | 8.0 | 0.00 | 0.00 | 0.00 | 80 | 1018.5 |
| 20260502062801 | 13 | 0 | 4.8 | 9.7 | 0.00 | 0.00 | 0.00 | 80 | 1018.5 |
| 20260502062306 | 13 | 0 | 4.8 | 9.7 | 0.00 | 0.00 | 0.00 | 80 | 1018.4 |
| 20260502062257 | 13 | 0 | 4.8 | 9.7 | 0.00 | 0.00 | 0.00 | 79 | 1018.4 |
| 20260502061303 | 13 | 0 | 3.2 | 9.7 | 0.00 | 0.00 | 0.00 | 79 | 1018.4 |
| 20260502061033 | 13 | 0 | 3.2 | 9.7 | 0.00 | 0.00 | 0.00 | 79 | 1018.4 |
| 20260502060304 | 13 | 0 | 6.4 | 11.3 | 0.00 | 0.00 | 0.00 | 79 | 1018.5 |
| 20260502055802 | 13 | 0 | 8.0 | 11.3 | 0.00 | 0.00 | 0.00 | 78 | 1018.6 |
| 20260502055313 | 13 | 0 | 6.4 | 8.0 | 0.00 | 0.00 | 0.00 | 78 | 1018.4 |
| 20260502054802 | 13 | 0 | 4.8 | 8.0 | 0.00 | 0.00 | 0.00 | 78 | 1018.4 |
| 20260502054302 | 13 | 0 | 4.8 | 8.0 | 0.00 | 0.00 | 0.00 | 78 | 1018.4 |
| 20260502053804 | 12 | 0 | 3.2 | 8.0 | 0.00 | 0.00 | 0.00 | 79 | 1018.3 |